A1LC

 

 

Amara One Loft Challenge - Loft Fly

Station: Inventory - T Race

Distance: 1 Miles    

Release: 07-Apr-2021 16:41

Weather Release:    Arrival:

Wind at Release:     Wind at Arrival:

Temp at Release: °    Temp at Arrival: °

Lofts: 33

Birds: 171

Clocked: 147

Good Luck to Everyone!
Drops Pos Breeder Pigeon Name Color Sex Ent Arrival Speed To Win Elg Pd
1 Freddies Belcaert Loft - FL 0115-AU21-FB CSPL H 1 16:50:50.30 178.892 00:00:00 Yes
2 Rayo Loft - TN 9812-AU21-NASH BCHE H 1 16:52:55.90 147.507 00:02:06 Yes
3 Thunder Loft 2 - FL 14199-AU21-JEDD BC H 1 16:53:25.70 141.612 00:02:35 Yes
4 Laqu Lofts - MI 6611-AU21-ARPU 103 X 219 BBWF H 1 16:53:37.30 139.443 00:02:47 Yes
5 Blown Money Loft - NY 1166-IF21-CMP BB H 1 16:54:29.60 130.435 00:03:39 Yes
6 Braulio Brenda Loft - PR 0035-AU21-WSRP SPLS H 1 16:54:31.90 130.065 00:03:42 Yes
7 M M Rayas Loft - MS 31067-AU21-AA BB H 1 16:54:42.00 128.467 00:03:52 Yes
8 Perez Rubio Loft - TN 9808-AU21-NASH BCHE H 1 16:54:55.10 126.452 00:04:05 Yes
9 Thunder Loft 2 - FL 14198-AU21-JEDD BC H 2 16:55:22.80 122.392 00:04:33 Yes
10 Perez Rubio Loft - TN 9811-AU21-NASH BCHE H 2 16:55:26.60 121.856 00:04:36 Yes
11 Karina Loft - FL 17514-AU21-AA BB C 1 16:56:02.60 116.995 00:05:12 Yes
12 Malacha-Costa-Loft - GA 1223-AU21-CHT Rocket BB H 1 16:57:09.00 108.978 00:06:19 Yes
13 Perez Rubio Loft - TN 9828-AU21-NASH BB H 3 16:57:16.70 108.119 00:06:26 Yes
14 Perez Rubio Loft - TN 9829-AU21-NASH BCHE H 4 16:57:35.30 106.099 00:06:45 Yes
15 Laqu Lofts - MI 6612-AU21-ARPU 198 X 8974 PIED H 2 16:58:56.40 98.105 00:08:06 Yes
16 M M Rayas Loft - MS 31061-AU21-AA BB C 2 16:59:09.40 96.934 00:08:19 Yes
17 Quesada.Famili Loft - FL 0104-AU21-FB BB H 1 17:01:44.10 84.881 00:10:54 Yes
18 K Town - TN 0899-AU21-FOYS BB H 1 17:01:56.30 84.056 00:11:06 Yes
19 Karina Loft - FL 17515-AU21-AA BC C 2 17:03:09.10 79.452 00:12:19 Yes
20 Blown Money Loft - NY 1152-IF21-CMP BB H 2 17:03:43.30 77.459 00:12:53 Yes
21 Jose A.Rios Loft - PR 2603-AU21-WSRP BB H 1 17:05:27.40 71.964 00:14:37 Yes
22 WingsofstoneMileHigh - NY 0103-AU21-HPR Pineapple Express BB H 1 17:10:13.50 60.222 00:19:23 Yes
23 Perez Rubio Loft - TN 9818-AU21-NASH BCHE H 5 17:10:35.30 59.483 00:19:45 Yes
24 Perez Rubio Loft - TN 9826-AU21-NASH BB H 6 17:10:37.30 59.416 00:19:47 Yes
25 Candela D Pigeon Loft - GA 0303-AU21-GA Chocolate CHOC H 1 17:10:37.90 59.396 00:19:48 Yes
26 Larry's Loft - TN 9416-AU21-NASH BB C 1 17:10:38.50 59.376 00:19:48 Yes
27 Undoso Loft - FL 0021-AU21-UNDO 586 / 3586 BB H 1 17:10:39.70 59.336 00:19:49 Yes
28 Thunder Loft 2 - FL 14183-AU21-JEDD BB H 3 17:10:41.20 59.286 00:19:51 Yes
29 Karina Loft - FL 17513-AU21-AA BB C 3 17:10:42.00 59.259 00:19:52 Yes
30 Thunder Loft 2 - FL 14182-AU21-JEDD BB C 4 17:10:44.30 59.183 00:19:54 Yes
31 Malacha-Costa-Loft - GA 6920-AU21-AA PEN H 2 17:10:45.00 59.160 00:19:55 Yes
32 Hns Velazquez - PR 3827-AU21-WSRP BB H 1 17:10:47.60 59.074 00:19:57 Yes
33 WingsofstoneMileHigh - NY 3051-IF21-BUFF Surviving Oso BC H 2 17:10:50.90 58.965 00:20:01 Yes
34 Larry's Loft - TN 9412-AU21-NASH BB H 2 17:11:04.10 58.533 00:20:14 Yes
35 Rayo Loft - TN 9816-AU21-NASH BB H 2 17:11:13.50 58.230 00:20:23 Yes
36 Tequila G4 Loft - FL 21551-AU21-ARPU BB H 1 17:11:16.00 58.150 00:20:26 Yes
37 C-4 PelÓn Loft - MS 8334-AU21-JEDD Lluvia SPLA H 1 17:11:18.30 58.076 00:20:28 Yes
38 Perez Rubio Loft - TN 9827-AU21-NASH BB H 7 17:11:20.70 58.000 00:20:30 Yes
39 Candela D Pigeon Loft - GA 0306-AU21-GA Blessings BB H 2 17:11:35.20 57.541 00:20:45 Yes
40 Perez Rubio Loft - TN 9817-AU21-NASH BB H 8 17:11:36.40 57.504 00:20:46 Yes
41 Thunder Loft 2 - FL 14194-AU21-JEDD BC H 5 17:12:17.20 56.254 00:21:27 Yes
42 M M Rayas Loft - MS 31056-AU21-AA SPLA C 3 17:12:25.80 55.997 00:21:36 Yes
43 Malacha-Costa-Loft - GA 1220-AU21-CHT Esperimento BB H 3 17:12:37.00 55.667 00:21:47 Yes
44 Felix Loft Of Tn - TN 5369-AU21-FOYS BB H 1 17:12:43.30 55.483 00:21:53 Yes
45 Candela D Pigeon Loft - GA 0311-AU21-GA Candela 1 BB C 3 17:12:43.70 55.471 00:21:53 Yes
46 Malacha-Costa-Loft - GA 6904-AU21-AA BB H 4 17:12:48.30 55.337 00:21:58 Yes
47 Thunder Loft 2 - FL 14195-AU21-JEDD BC H 6 17:12:51.00 55.259 00:22:01 Yes
48 Thunder Loft 2 - FL 14188-AU21-JEDD BB H 7 17:12:51.40 55.247 00:22:01 Yes
49 C-4 PelÓn Loft - MS 8302-AU21-JEDD JALISQUILLO BC C 2 17:12:58.70 55.037 00:22:08 Yes
50 Tequila G4 Loft - FL 5300-AU21-FOYS BC H 2 17:13:03.50 54.900 00:22:13 Yes
51 Undoso Loft - FL 0009-AU21-UNDO 16085 / 73870 BC H 2 17:13:11.30 54.678 00:22:21 Yes
52 Yasiel & Noel Loft - FL 0003-AU21-BRAV BC H 1 17:13:11.70 54.667 00:22:21 Yes
53 Malacha-Costa-Loft - GA 7000-AU21-AA SM H 5 17:13:29.70 54.162 00:22:39 Yes
54 Thunder Loft 2 - FL 14200-AU21-JEDD BC C 8 17:13:37.50 53.946 00:22:47 Yes
55 Pitigua Jr - PR 6006-AU21-JEDD THE CHOCO GIRL BLOOD BB H 1 17:13:52.80 53.528 00:23:02 Yes
56 Jemi Pancake Loft - TN 10158-AU21-NASH RED H 1 17:13:55.40 53.458 00:23:05 Yes
57 Felix Loft Of Tn - TN 5368-AU21-FOYS BB H 2 17:14:10.30 53.057 00:23:20 Yes
58 Hns Velazquez - PR 3828-AU21-WSRP BB H 2 17:14:12.50 52.999 00:23:22 Yes
59 WingsofstoneMileHigh - NY 0118-AU21-HPR White Knuckler GRIZ H 3 17:14:14.90 52.935 00:23:25 Yes
60 Yasiel & Noel Loft - FL 0001-AU21-BRAV SILV H 2 17:14:24.20 52.689 00:23:34 Yes
61 Quesada.Famili Loft - FL 0109-AU21-FB RED H 2 17:14:29.30 52.556 00:23:39 Yes
62 El Hm Gallo Loft - FL 0109-AU21-PRP SILV C 1 17:14:40.70 52.259 00:23:50 Yes
63 WingsofstoneMileHigh - NY 0196-AU21-HPR Trailer Park Tornado BC H 4 17:14:50.30 52.012 00:24:00 Yes
64 VFL - IL 21558-AU21-ARPU BC H 1 17:14:52.40 51.958 00:24:02 Yes
65 Jemi Pancake Loft - TN 9825-AU21-NASH BB H 2 17:14:59.10 51.788 00:24:09 Yes
66 Cardona Brother Pigeon Loft - PR 1706-AU21-WSRP AZUL H 1 17:15:01.50 51.727 00:24:11 Yes
67 Rayo Loft - TN 9823-AU21-NASH BCHE H 3 17:15:14.70 51.394 00:24:24 Yes
68 Undoso Loft - FL 0022-AU21-UNDO 586 / 3586 BB H 3 17:15:16.20 51.357 00:24:26 Yes
69 Karina Loft - FL 17508-AU21-AA BB H 4 17:15:22.20 51.207 00:24:32 Yes
70 Yasiel & Noel Loft - FL 0004-AU21-BRAV BC H 3 17:15:31.70 50.973 00:24:41 Yes
71 Karina Loft - FL 17506-AU21-AA BB C 5 17:15:42.30 50.713 00:24:52 Yes
72 Felix Loft Of Tn - TN 5367-AU21-FOYS BC H 3 17:15:43.70 50.679 00:24:53 Yes
73 Malacha-Costa-Loft - GA 1202-AU21-CHT Yanky # 2 BB H 6 17:15:46.60 50.609 00:24:56 Yes
74 Karina Loft - FL 17507-AU21-AA BB H 6 17:15:47.00 50.599 00:24:57 Yes
75 El Hm Gallo Loft - FL 0102-AU21-PRP BCWF C 2 17:15:47.40 50.589 00:24:57 Yes
76 El Hm Gallo Loft - FL 0118-AU21-PRP BB C 3 17:16:03.90 50.192 00:25:14 Yes
77 Cobas-Reyes Family Loft - GA 0272-AU21-CHT BC C 1 17:16:05.60 50.152 00:25:15 Yes
78 Quesada.Famili Loft - FL 0108-AU21-FB BB H 3 17:16:06.00 50.142 00:25:16 Yes
79 WingsofstoneMileHigh - NY 0105-AU21-HPR Pequeo Huracan BB C 5 17:16:18.60 49.844 00:25:28 Yes
80 Rayo Loft - TN 9819-AU21-NASH BPEN H 4 17:16:21.70 49.771 00:25:31 Yes
81 Quesada.Famili Loft - FL 0106-AU21-FB BCH H 4 17:16:26.60 49.657 00:25:36 Yes
82 K Town - TN 0865-AU21-FOYS BB H 2 17:16:39.10 49.367 00:25:49 Yes
83 Karina Loft - FL 17509-AU21-AA CB H 7 17:16:41.50 49.311 00:25:51 Yes
84 Larry's Loft - TN 9423-AU21-NASH DC H 3 17:16:42.50 49.288 00:25:52 Yes
85 Jose A.Rios Loft - PR 2608-AU21-WSRP BC H 2 17:16:47.60 49.171 00:25:57 Yes
86 Undoso Loft - FL 0016-AU21-UNDO La Lichy / 2667 BC H 4 17:16:57.90 48.936 00:26:08 Yes
87 Malacha-Costa-Loft - GA 1217-AU21-CHT La Loba DC H 7 17:17:17.80 48.489 00:26:28 Yes
88 Perez Rubio Loft - TN 9807-AU21-NASH BCHE H 9 17:17:18.20 48.480 00:26:28 Yes
89 Cardona Brother Pigeon Loft - PR 1701-AU21-WSRP AZUL H 2 17:17:30.00 48.219 00:26:40 Yes
90 Oriente Loft - TN 21709-AU21-ARPU BB H 1 17:17:39.50 48.011 00:26:49 Yes
91 Undoso Loft - FL 0006-AU21-UNDO Sin anillo / Osmany BC H 5 17:17:46.70 47.854 00:26:56 Yes
92 Tequila G4 Loft - FL 5284-AU21-FOYS BB H 3 17:17:51.00 47.761 00:27:01 Yes
93 Y.Delgado Loft - FL 0027-AU21-UNDO 💣LA BOMBERITA🔥 SPLA H 1 17:18:20.60 47.130 00:27:30 Yes
94 Candela D Pigeon Loft - GA 0329-AU21-GA Candela2 SP H 4 17:18:33.50 46.860 00:27:43 Yes
95 Undoso Loft - FL 0004-AU21-UNDO 201 / 581 BC H 6 17:18:51.60 46.487 00:28:01 Yes
96 Laqu Lofts - MI 6614-AU21-ARPU 1292 X Mile 19 BB H 3 17:19:19.20 45.929 00:28:29 Yes
97 Undoso Loft - FL 0005-AU21-UNDO Lynch / Magic BC H 7 17:19:21.00 45.893 00:28:31 Yes
98 Shubert Family Loft - TN 54546-DV21-680 BWF H 1 17:19:24.80 45.817 00:28:35 Yes
99 Cobas-Reyes Family Loft - GA 0273-AU21-CHT BC H 2 17:19:31.10 45.693 00:28:41 Yes
100 Jemi Pancake Loft - TN 10157-AU21-NASH BB H 3 17:20:24.00 44.670 00:29:34 Yes

There are 147 bird records

Note: These Race Results are unofficial and subject to change until verified by the Race Committee and declared final.

 

windy